{"data":{"norad_id":47838,"epoch":"2026-09-20T01:13:16.112352Z","epoch_age_seconds":67968,"freshness":"FRESH","line1":"1 47838U 21018BD  26263.05088093 -.00001230  00000+0 -27891-4 0  9992","line2":"2 47838  53.1612  61.2268 0001036  96.5962 263.5158 15.31700283306461","mean_motion":15.31700283,"eccentricity":0.0001036,"inclination_deg":53.1612,"raan_deg":61.2268,"arg_perigee_deg":96.5962,"mean_anomaly_deg":263.5158,"bstar":-2.7891e-5,"rev_number":30646,"period_min":94.013170591025,"perigee_km":470.0296080482,"apogee_km":471.44869518681,"semimajor_km":6848.8761516175,"source":"CELESTRAK","updated_at":"2026-09-20T09:00:38.752918Z"}}